Tracking 28790 objects as of 19-Apr-2024
HD Live streaming from Space Station
objects crossing your sky now

FENGYUN 1C DEB

Track FENGYUN 1C DEB now!
10-day predictions


NORAD ID: 31092
Int'l Code: 1999-025BGN
Perigee: 851.6 km
Apogee: 1,353.4 km
Inclination: 99.7 °
Period: 107.2 minutes
Semi major axis: 7473 km
RCS: 0.0082 m2 (small)
Launch date: May 10, 1999
Source: People's Republic of China (PRC)
Launch site: Taiyaun Space Center, China (TSC)

Note: This is SATELLITE DEBRIS
Your satellite tracking list
Your tracking list is empty




NASA's NSSDC Master Catalog

Two Line Element Set (TLE):
1 31092U 99025BGN 24109.88618110  .00003452  00000-0  43231-2 0  9998
2 31092  99.6640 239.5311 0335713 183.8724 175.9797 13.43755889838535
Source of the keplerian elements: AFSPC